This demonstration page uses our WeatherBlox Daily Observations layout. Learn more.

Left ArrowRight Arrow

Hourly Observations for July 1, 2021

Temp ( °F °C ) Dew Point ( °F °C ) Humidity (%) Winds ( mph kmh ) Pressure ( in mb ) Visibility ( mi km ) Precip ( " mm )
12:15 am 00:15 Partly Cloudy 70 21 66 19.1 89 89 ENE 3 6 30.03 1017 10 16 N/A
12:35 am 00:35 Partly Cloudy 69 20.6 66 18.8 89 89 ENE 3 6 30.04 1017 10 16 N/A
12:55 am 00:55 Mostly Cloudy 68 20.1 65 18.6 91 91 ENE 5 7 30.04 1017 10 16 N/A
1:15 am 01:15 Partly Cloudy 68 20 65 18.5 91 91 ENE 3 6 30.05 1018 10 16 N/A
1:35 am 01:35 Partly Cloudy 67 19.7 65 18.5 93 93 NE 5 7 30.04 1017 7 11 N/A
1:55 am 01:55 Clear 67 19.2 65 18.3 95 95 N N/A 30.05 1018 7 11 N/A
2:35 am 02:35 Clear with Mist and Fog 65 18.2 64 17.5 96 96 N N/A 30.05 1018 5 8 N/A
2:55 am 02:55 Clear with Mist and Fog 65 18.1 63 17.3 95 95 N N/A 30.05 1018 5 8 N/A
3:15 am 03:15 Clear with Mist and Fog 64 17.7 63 17.1 96 96 N N/A 30.05 1018 4 6 N/A
3:35 am 03:35 Clear with Mist and Fog 64 17.5 63 17 97 97 N N/A 30.05 1018 4 6 N/A
3:55 am 03:55 Clear with Mist and Fog 63 17 62 16.4 96 96 N N/A 30.06 1018 4 6 N/A
4:15 am 04:15 Clear with Mist and Fog 63 17.1 62 16.6 97 97 N N/A 30.05 1018 4 6 N/A
4:35 am 04:35 Clear with Mist and Fog 63 17.1 62 16.6 97 97 N N/A 30.06 1018 3 4 N/A
4:55 am 04:55 Clear with Mist and Fog 63 17.1 62 16.6 97 97 N N/A 30.05 1018 4 6 N/A
5:15 am 05:15 Clear with Mist and Fog 61 16.2 60 15.8 97 97 N N/A 30.07 1018 3 4 N/A
5:35 am 05:35 Clear with Mist and Fog 62 16.4 61 16 98 98 N N/A 30.07 1018 3 4 N/A
5:55 am 05:55 Clear with Mist and Fog 61 15.9 60 15.5 97 97 N N/A 30.08 1019 3 4 N/A
6:15 am 06:15 Mostly Cloudy with Mist and Fog 61 16.2 61 15.9 98 98 N N/A 30.07 1018 1 2 N/A
6:35 am 06:35 Mostly Cloudy with Mist and Fog 62 16.6 61 16.2 98 98 N N/A 30.08 1019 2 3 N/A
6:55 am 06:55 Mostly Cloudy with Mist and Fog 62 16.4 61 16 98 98 N N/A 30.08 1019 1 2 N/A
7:15 am 07:15 Mostly Cloudy with Mist and Fog 63 17.2 63 17 99 99 ENE 3 6 30.07 1018 2 2 N/A
7:35 am 07:35 Mostly Cloudy with Mist and Fog 64 18 64 17.5 97 97 N N/A 30.07 1018 2 3 N/A
7:55 am 07:55 Sunny with Mist and Fog 67 19.4 65 18.5 95 95 E 3 6 30.06 1018 3 4 N/A
8:15 am 08:15 Sunny with Mist and Fog 70 21.1 65 18.6 86 86 E 5 7 30.04 1017 5 8 N/A
8:35 am 08:35 Sunny 71 21.6 66 18.7 84 84 E 6 9 30.04 1017 7 11 N/A
8:55 am 08:55 Sunny 72 22 65 18.6 81 81 E 7 11 30.04 1017 7 11 N/A
9:15 am 09:15 Partly Cloudy 73 22.6 65 18.6 78 78 ESE 8 13 30.06 1018 10 16 N/A
9:35 am 09:35 Cloudy 74 23.4 65 18.2 73 73 E 6 9 30.06 1018 10 16 N/A
9:55 am 09:55 Partly Cloudy 75 23.9 63 17.4 67 67 SE 10 17 30.06 1018 10 16 N/A
10:15 am 10:15 Sunny 76 24.6 62 16.8 62 62 SE 7 11 30.04 1017 10 16 N/A
10:35 am 10:35 Sunny 77 25.2 61 16.3 58 58 SE 9 15 30.04 1017 10 16 N/A
10:55 am 10:55 Partly Cloudy 78 25.7 60 15.8 54 54 ESE 10 17 30.03 1017 10 16 N/A
11:15 am 11:15 Partly Cloudy 79 26 60 15.4 52 52 E 8 13 30.03 1017 10 16 N/A
11:35 am 11:35 Partly Cloudy 79 26.1 59 15 50 50 SE 9 15 30.03 1017 10 16 N/A
11:55 am 11:55 Partly Cloudy 80 26.7 58 14.4 47 47 SE 6 9 30.03 1017 10 16 N/A
12:15 pm 12:15 Partly Cloudy 80 26.6 56 13.1 43 43 E 9 15 30.03 1017 10 16 N/A
12:35 pm 12:35 Partly Cloudy 80 26.8 58 14.7 47 47 SSE 8 13 30.02 1017 10 16 N/A
12:55 pm 12:55 Partly Cloudy 80 26.5 57 13.8 46 46 E 8 13 30.02 1016 10 16 N/A
1:15 pm 13:15 Partly Cloudy 81 27.4 58 14.3 45 45 SE 9 15 30.01 1016 10 16 N/A
1:35 pm 13:35 Partly Cloudy 81 27 58 14.4 46 46 SE 7 11 30.01 1016 10 16 N/A
1:55 pm 13:55 Mostly Cloudy 81 27.4 58 14.3 45 45 ESE 9 15 30.00 1016 10 16 N/A
2:15 pm 14:15 Partly Cloudy 82 27.7 58 14.6 45 45 SE 9 15 29.99 1015 10 16 N/A
2:35 pm 14:35 Partly Cloudy 81 27.1 57 13.9 44 44 E 5 7 29.99 1016 10 16 N/A
2:55 pm 14:55 Partly Cloudy 82 27.6 60 15.3 47 47 ESE 9 15 29.98 1015 10 16 N/A
3:15 pm 15:15 Partly Cloudy 82 27.6 58 14.5 45 45 ESE 7 11 29.98 1015 10 16 N/A
3:35 pm 15:35 Partly Cloudy 81 27 59 14.9 48 48 ESE 9 15 29.98 1015 10 16 N/A
3:55 pm 15:55 Partly Cloudy 81 27.4 59 14.9 46 46 ESE 6 9 29.97 1015 10 16 N/A
4:15 pm 16:15 Partly Cloudy 82 27.6 59 15 46 46 SE 8 13 29.97 1015 10 16 N/A
4:35 pm 16:35 Partly Cloudy 81 27.1 58 14.7 47 47 SE 5 7 29.96 1015 10 16 N/A
4:55 pm 16:55 Partly Cloudy 82 28 59 14.8 45 45 ESE 8 13 29.95 1014 10 16 N/A
5:15 pm 17:15 Partly Cloudy 81 27.4 58 14.5 45 45 ESE 7 11 29.96 1015 10 16 N/A
5:35 pm 17:35 Partly Cloudy 81 27.4 59 14.8 46 46 SE 8 13 29.96 1015 10 16 N/A
5:55 pm 17:55 Partly Cloudy 82 28 59 15.1 45 45 E 7 11 29.95 1014 10 16 N/A
6:15 pm 18:15 Mostly Cloudy 82 27.8 59 14.9 45 45 ESE 9 15 29.95 1014 10 16 N/A
6:35 pm 18:35 Partly Cloudy 82 27.6 58 14.7 45 45 ESE 7 11 29.95 1014 10 16 N/A
6:55 pm 18:55 Partly Cloudy 81 27.4 59 14.8 46 46 SE 8 13 29.96 1015 10 16 N/A
7:15 pm 19:15 Partly Cloudy 81 27.2 59 14.9 47 47 ESE 8 13 29.96 1015 10 16 N/A
7:35 pm 19:35 Partly Cloudy 80 26.9 58 14.7 47 47 SE 8 13 29.96 1015 10 16 N/A
7:55 pm 19:55 Sunny 79 26.2 59 14.9 50 50 SE 9 15 29.97 1015 10 16 N/A
8:15 pm 20:15 Sunny 78 25.7 59 15 52 52 SE 8 13 29.98 1015 10 16 N/A
8:35 pm 20:35 Partly Cloudy 78 25.3 60 15.5 55 55 SE 8 13 30.00 1016 10 16 N/A
8:55 pm 20:55 Partly Cloudy 76 24.5 61 16 59 59 SE 6 9 30.00 1016 10 16 N/A
9:15 pm 21:15 Partly Cloudy 75 23.7 61 16 62 62 SE 5 7 30.00 1016 10 16 N/A
9:35 pm 21:35 Clear 74 23.1 61 16 64 64 SE 5 7 30.02 1016 10 16 N/A
9:55 pm 21:55 Clear 73 22.7 61 16.1 66 66 SE 6 9 30.02 1017 10 16 N/A
10:15 pm 22:15 Clear 73 22.7 62 16.5 68 68 SE 6 9 30.03 1017 10 16 N/A
10:35 pm 22:35 Clear 70 21 62 16.6 76 76 N N/A 30.05 1018 10 16 N/A
10:55 pm 22:55 Partly Cloudy 70 21 62 16.6 76 76 N N/A 30.06 1018 10 16 N/A
11:15 pm 23:15 Mostly Cloudy 69 20.7 62 16.8 78 78 N N/A 30.07 1018 10 16 N/A
11:35 pm 23:35 Mostly Cloudy 68 20.1 62 16.9 82 82 SSE 3 6 30.07 1018 10 16 N/A
11:55 pm 23:55 Partly Cloudy 68 20.1 62 16.8 81 81 SE 5 7 30.07 1018 10 16 N/A

Powered by AerisWeather